| time (UTC) | temp F | wind direction | speed MPH | gust MPH | rain 1hr in | rain 24hr in | rain mn in | humidity % | barometer mb |
| 20260906201204 | 75 | 341 | 2.0 | 12.0 | 0.00 | 0.00 | 0.00 | 66 | 1015.4 |
| 20260906200704 | 75 | 7 | 2.0 | 9.0 | 0.00 | 0.00 | 0.00 | 67 | 1015.5 |
| 20260906195705 | 76 | 59 | 6.0 | 13.0 | 0.00 | 0.00 | 0.00 | 66 | 1015.4 |
| 20260906195204 | 76 | 321 | 1.0 | 5.0 | 0.00 | 0.00 | 0.00 | 66 | 1015.6 |
| 20260906194704 | 76 | 314 | 3.0 | 8.0 | 0.00 | 0.00 | 0.00 | 64 | 1015.5 |
| 20260906194204 | 76 | 328 | 2.0 | 9.0 | 0.00 | 0.00 | 0.00 | 66 | 1015.4 |
| 20260906193704 | 75 | 4 | 2.0 | 9.0 | 0.00 | 0.00 | 0.00 | 66 | 1015.3 |
| 20260906192204 | 76 | 340 | 1.0 | 5.0 | 0.00 | 0.00 | 0.00 | 65 | 1015.5 |
| 20260906191705 | 75 | 4 | 3.0 | 8.0 | 0.00 | 0.00 | 0.00 | 70 | 1015.4 |
| 20260906191204 | 75 | 27 | 4.0 | 17.0 | 0.00 | 0.00 | 0.00 | 66 | 1015.7 |
| 20260906190204 | 76 | 20 | 3.0 | 8.0 | 0.00 | 0.00 | 0.00 | 68 | 1015.5 |
| 20260906185704 | 76 | 5 | 2.0 | 8.0 | 0.00 | 0.00 | 0.00 | 71 | 1015.5 |
| 20260906185204 | 75 | 30 | 4.0 | 12.0 | 0.00 | 0.00 | 0.00 | 68 | 1015.7 |
| 20260906184705 | 75 | 355 | 3.0 | 9.0 | 0.00 | 0.00 | 0.00 | 70 | 1015.6 |
| 20260906183704 | 75 | 8 | 6.0 | 13.0 | 0.00 | 0.00 | 0.00 | 72 | 1015.8 |
| 20260906183204 | 75 | 48 | 3.0 | 12.0 | 0.00 | 0.00 | 0.00 | 72 | 1015.8 |
| 20260906182704 | 76 | 7 | 3.0 | 7.0 | 0.00 | 0.00 | 0.00 | 72 | 1015.8 |
| 20260906182205 | 73 | 282 | 1.0 | 13.0 | 0.00 | 0.00 | 0.00 | 73 | 1015.8 |
| 20260906181704 | 73 | 309 | 3.0 | 17.0 | 0.00 | 0.00 | 0.00 | 74 | 1015.7 |
| 20260906181204 | 75 | 348 | 9.0 | 14.0 | 0.00 | 0.00 | 0.00 | 73 | 1015.8 |
| 20260906174704 | 73 | 357 | 6.0 | 16.0 | 0.00 | 0.00 | 0.00 | 76 | 1015.9 |
| 20260906174204 | 73 | 0 | 1.0 | 7.0 | 0.00 | 0.00 | 0.00 | 77 | 1016.0 |
| 20260906173205 | 74 | 33 | 5.0 | 9.0 | 0.00 | 0.00 | 0.00 | 76 | 1015.9 |
| 20260906171704 | 75 | 4 | 5.0 | 13.0 | 0.00 | 0.00 | 0.00 | 77 | 1016.3 |
| 20260906171205 | 74 | 353 | 6.0 | 12.0 | 0.00 | 0.00 | 0.00 | 75 | 1016.0 |
| 20260906170704 | 73 | 341 | 3.0 | 8.0 | 0.00 | 0.00 | 0.00 | 78 | 1016.2 |
| 20260906170204 | 73 | 355 | 2.0 | 13.0 | 0.00 | 0.00 | 0.00 | 76 | 1016.1 |
| 20260906165706 | 74 | 349 | 6.0 | 13.0 | 0.00 | 0.00 | 0.00 | 76 | 1016.1 |
| 20260906165204 | 73 | 24 | 5.0 | 12.0 | 0.00 | 0.00 | 0.00 | 79 | 1016.1 |
| 20260906164704 | 73 | 8 | 5.0 | 12.0 | 0.00 | 0.00 | 0.00 | 79 | 1016.0 |
| 20260906164204 | 74 | 331 | 3.0 | 8.0 | 0.00 | 0.00 | 0.00 | 77 | 1016.1 |
| 20260906163704 | 75 | 348 | 2.0 | 8.0 | 0.00 | 0.00 | 0.00 | 78 | 1015.9 |
| 20260906162705 | 74 | 337 | 3.0 | 12.0 | 0.00 | 0.00 | 0.00 | 82 | 1016.0 |
| 20260906162205 | 74 | 335 | 6.0 | 13.0 | 0.00 | 0.00 | 0.00 | 78 | 1015.9 |
| 20260906161705 | 74 | 33 | 4.0 | 12.0 | 0.00 | 0.00 | 0.00 | 80 | 1015.9 |
| 20260906161204 | 73 | 87 | 6.0 | 16.0 | 0.00 | 0.00 | 0.00 | 80 | 1016.2 |
| 20260906160705 | 72 | 350 | 6.0 | 13.0 | 0.00 | 0.00 | 0.00 | 83 | 1016.1 |
| 20260906160204 | 72 | 27 | 7.0 | 13.0 | 0.00 | 0.00 | 0.00 | 83 | 1016.1 |
| 20260906155705 | 73 | 353 | 6.0 | 13.0 | 0.00 | 0.00 | 0.00 | 81 | 1016.1 |
| 20260906154704 | 73 | 32 | 5.0 | 12.0 | 0.00 | 0.00 | 0.00 | 81 | 1016.0 |
| 20260906154205 | 73 | 57 | 3.0 | 13.0 | 0.00 | 0.00 | 0.00 | 80 | 1015.9 |
| 20260906153704 | 73 | 20 | 5.0 | 9.0 | 0.00 | 0.00 | 0.00 | 83 | 1016.2 |
| 20260906153204 | 72 | 47 | 3.0 | 12.0 | 0.00 | 0.00 | 0.00 | 83 | 1016.1 |
| 20260906152704 | 73 | 50 | 1.0 | 12.0 | 0.00 | 0.00 | 0.00 | 84 | 1016.1 |
| 20260906152204 | 73 | 338 | 3.0 | 9.0 | 0.00 | 0.00 | 0.00 | 82 | 1016.0 |
| 20260906151705 | 72 | 20 | 2.0 | 13.0 | 0.00 | 0.00 | 0.00 | 83 | 1016.1 |
| 20260906151204 | 72 | 45 | 3.0 | 13.0 | 0.00 | 0.00 | 0.00 | 83 | 1016.0 |
| 20260906150206 | 71 | 339 | 3.0 | 13.0 | 0.00 | 0.00 | 0.00 | 84 | 1016.0 |
| 20260906145704 | 71 | 26 | 4.0 | 12.0 | 0.00 | 0.00 | 0.00 | 84 | 1016.0 |
| 20260906145205 | 70 | 0 | 6.0 | 12.0 | 0.00 | 0.00 | 0.00 | 84 | 1015.9 |
| 20260906144704 | 70 | 352 | 2.0 | 9.0 | 0.00 | 0.00 | 0.00 | 86 | 1016.0 |
| 20260906144204 | 71 | 22 | 2.0 | 8.0 | 0.00 | 0.00 | 0.00 | 83 | 1016.1 |
| 20260906143204 | 69 | 339 | 3.0 | 8.0 | 0.00 | 0.00 | 0.00 | 86 | 1016.0 |
| 20260906142705 | 69 | 19 | 2.0 | 8.0 | 0.00 | 0.00 | 0.00 | 87 | 1016.0 |
| 20260906142206 | 69 | 43 | 1.0 | 9.0 | 0.00 | 0.00 | 0.00 | 88 | 1016.3 |
| 20260906141205 | 71 | 5 | 4.0 | 9.0 | 0.00 | 0.00 | 0.00 | 85 | 1015.9 |
| 20260906140704 | 70 | 28 | 3.0 | 9.0 | 0.00 | 0.00 | 0.00 | 87 | 1015.8 |
| 20260906140205 | 70 | 329 | 2.0 | 7.0 | 0.00 | 0.00 | 0.00 | 87 | 1015.8 |
| 20260906135204 | 69 | 354 | 2.0 | 13.0 | 0.00 | 0.00 | 0.00 | 86 | 1015.8 |
| 20260906134207 | 70 | 15 | 2.0 | 9.0 | 0.00 | 0.00 | 0.00 | 86 | 1015.6 |
| 20260906133204 | 69 | 30 | 1.0 | 7.0 | 0.00 | 0.00 | 0.00 | 88 | 1015.6 |
| 20260906132204 | 70 | 53 | 3.0 | 9.0 | 0.00 | 0.00 | 0.00 | 84 | 1015.5 |
| 20260906131204 | 70 | 87 | 3.0 | 7.0 | 0.00 | 0.00 | 0.00 | 85 | 1015.4 |
| 20260906130705 | 69 | 30 | 2.0 | 7.0 | 0.00 | 0.00 | 0.00 | 86 | 1015.5 |
| 20260906130204 | 69 | 37 | 2.0 | 5.0 | 0.00 | 0.00 | 0.00 | 88 | 1015.5 |
| 20260906125705 | 69 | 352 | 3.0 | 7.0 | 0.00 | 0.00 | 0.00 | 87 | 1015.5 |
| 20260906125204 | 69 | 1 | 3.0 | 13.0 | 0.00 | 0.00 | 0.00 | 87 | 1015.5 |
| 20260906124705 | 68 | 358 | 2.0 | 13.0 | 0.00 | 0.00 | 0.00 | 89 | 1015.4 |
| 20260906124205 | 68 | 355 | 2.0 | 14.0 | 0.00 | 0.00 | 0.00 | 90 | 1015.5 |
| 20260906123204 | 67 | 358 | 3.0 | 14.0 | 0.00 | 0.00 | 0.00 | 91 | 1015.3 |
| 20260906122705 | 67 | 24 | 3.0 | 8.0 | 0.00 | 0.00 | 0.00 | 90 | 1015.3 |
| 20260906122205 | 67 | 355 | 5.0 | 8.0 | 0.00 | 0.00 | 0.00 | 90 | 1015.2 |
| 20260906121706 | 67 | 19 | 2.0 | 9.0 | 0.00 | 0.00 | 0.00 | 90 | 1015.3 |
| 20260906121205 | 66 | 14 | 5.0 | 9.0 | 0.00 | 0.00 | 0.00 | 91 | 1015.2 |
| 20260906120705 | 66 | 355 | 2.0 | 8.0 | 0.00 | 0.00 | 0.00 | 91 | 1015.3 |
| 20260906120204 | 66 | 327 | 1.0 | 9.0 | 0.00 | 0.00 | 0.00 | 91 | 1015.1 |
| 20260906115704 | 66 | 358 | 1.0 | 8.0 | 0.00 | 0.00 | 0.00 | 90 | 1015.1 |
| 20260906115205 | 67 | 2 | 2.0 | 8.0 | 0.00 | 0.00 | 0.00 | 90 | 1015.1 |
| 20260906114705 | 66 | 311 | 1.0 | 1.0 | 0.00 | 0.00 | 0.00 | 91 | 1015.0 |
| 20260906114205 | 65 | 322 | 1.0 | 5.0 | 0.00 | 0.00 | 0.00 | 92 | 1015.0 |
| 20260906113705 | 64 | 323 | 1.0 | 5.0 | 0.00 | 0.00 | 0.00 | 94 | 1015.0 |
| 20260906113204 | 63 | 320 | 0.0 | 1.0 | 0.00 | 0.00 | 0.00 | 95 | 1014.9 |
| 20260906112704 | 63 | 346 | 0.0 | 1.0 | 0.00 | 0.00 | 0.00 | 96 | 1014.8 |
| 20260906112204 | 62 | 346 | 0.0 | 1.0 | 0.00 | 0.00 | 0.00 | 98 | 1014.8 |
| 20260906111704 | 62 | 272 | 0.0 | 1.0 | 0.00 | 0.00 | 0.00 | 99 | 1014.6 |
| 20260906111205 | 61 | 272 | 0.0 | 3.0 | 0.00 | 0.00 | 0.00 | 99 | 1014.7 |
| 20260906110704 | 61 | 286 | 0.0 | 3.0 | 0.00 | 0.00 | 0.00 | 99 | 1014.6 |
| 20260906110206 | 60 | 336 | 1.0 | 3.0 | 0.00 | 0.00 | 0.00 | 99 | 1014.5 |
| 20260906105705 | 60 | 338 | 1.0 | 5.0 | 0.00 | 0.00 | 0.00 | 99 | 1014.5 |
| 20260906104705 | 59 | 346 | 1.0 | 5.0 | 0.00 | 0.00 | 0.00 | 99 | 1014.3 |
| 20260906104205 | 59 | 331 | 0.0 | 0.0 | 0.00 | 0.00 | 0.00 | 99 | 1014.4 |
| 20260906103705 | 59 | 331 | 0.0 | 1.0 | 0.00 | 0.00 | 0.00 | 99 | 1014.3 |
| 20260906103204 | 59 | 331 | 0.0 | 1.0 | 0.00 | 0.00 | 0.00 | 99 | 1014.2 |
| 20260906102204 | 59 | 331 | 0.0 | 1.0 | 0.00 | 0.00 | 0.00 | 99 | 1014.1 |
| 20260906101704 | 59 | 331 | 0.0 | 1.0 | 0.00 | 0.00 | 0.00 | 99 | 1013.8 |
| 20260906101204 | 59 | 331 | 0.0 | 0.0 | 0.00 | 0.00 | 0.00 | 99 | 1014.0 |
| 20260906100704 | 59 | 331 | 0.0 | 0.0 | 0.00 | 0.00 | 0.00 | 99 | 1013.7 |
| 20260906100205 | 59 | 331 | 0.0 | 1.0 | 0.00 | 0.00 | 0.00 | 99 | 1013.8 |
| 20260906095705 | 59 | 331 | 0.0 | 0.0 | 0.00 | 0.00 | 0.00 | 99 | 1013.7 |
| 20260906095205 | 59 | 331 | 0.0 | 0.0 | 0.00 | 0.00 | 0.00 | 99 | 1013.6 |
| 20260906094705 | 59 | 331 | 0.0 | 1.0 | 0.00 | 0.00 | 0.00 | 99 | 1013.7 |
| 20260906094204 | 59 | 331 | 0.0 | 1.0 | 0.00 | 0.00 | 0.00 | 99 | 1013.7 |
| 20260906093705 | 58 | 331 | 0.0 | 1.0 | 0.00 | 0.00 | 0.00 | 99 | 1013.6 |
| 20260906093205 | 59 | 333 | 0.0 | 1.0 | 0.00 | 0.00 | 0.00 | 99 | 1013.9 |
| 20260906092705 | 59 | 331 | 0.0 | 0.0 | 0.00 | 0.00 | 0.00 | 99 | 1013.6 |
| 20260906092204 | 59 | 331 | 0.0 | 0.0 | 0.00 | 0.00 | 0.00 | 99 | 1013.4 |
| 20260906091706 | 59 | 331 | 0.0 | 0.0 | 0.00 | 0.00 | 0.00 | 99 | 1013.3 |
| 20260906091205 | 59 | 331 | 0.0 | 0.0 | 0.00 | 0.00 | 0.00 | 99 | 1013.4 |
| 20260906090705 | 59 | 331 | 0.0 | 0.0 | 0.00 | 0.00 | 0.00 | 99 | 1013.0 |
| 20260906084704 | 58 | 331 | 0.0 | 0.0 | 0.00 | 0.00 | 0.00 | 99 | 1012.9 |
| 20260906084204 | 59 | 331 | 0.0 | 0.0 | 0.00 | 0.00 | 0.00 | 99 | 1013.1 |
| 20260906083706 | 59 | 331 | 0.0 | 0.0 | 0.00 | 0.00 | 0.00 | 99 | 1013.1 |
| 20260906082206 | 59 | 331 | 0.0 | 0.0 | 0.00 | 0.00 | 0.00 | 99 | 1012.9 |
| 20260906081705 | 59 | 331 | 0.0 | 1.0 | 0.00 | 0.00 | 0.00 | 99 | 1012.9 |
| 20260906081204 | 60 | 331 | 0.0 | 1.0 | 0.00 | 0.00 | 0.00 | 99 | 1012.8 |
| 20260906080704 | 60 | 331 | 0.0 | 1.0 | 0.00 | 0.00 | 0.00 | 99 | 1012.7 |
| 20260906080204 | 60 | 331 | 0.0 | 0.0 | 0.00 | 0.00 | 0.00 | 99 | 1012.7 |
| 20260906075204 | 59 | 331 | 0.0 | 0.0 | 0.00 | 0.00 | 0.00 | 99 | 1012.6 |
| 20260906074705 | 59 | 331 | 0.0 | 0.0 | 0.00 | 0.00 | 0.00 | 99 | 1012.6 |
| 20260906074204 | 59 | 331 | 0.0 | 0.0 | 0.00 | 0.00 | 0.00 | 99 | 1012.6 |
| 20260906073704 | 60 | 331 | 0.0 | 0.0 | 0.00 | 0.00 | 0.00 | 99 | 1012.8 |
| 20260906073204 | 60 | 331 | 0.0 | 1.0 | 0.00 | 0.00 | 0.00 | 99 | 1012.9 |
| 20260906072206 | 60 | 331 | 0.0 | 1.0 | 0.00 | 0.00 | 0.00 | 99 | 1012.5 |
| 20260906071705 | 60 | 331 | 0.0 | 0.0 | 0.00 | 0.00 | 0.00 | 99 | 1012.6 |
| 20260906071204 | 60 | 331 | 0.0 | 0.0 | 0.00 | 0.00 | 0.00 | 99 | 1012.7 |
| 20260906070704 | 60 | 331 | 0.0 | 0.0 | 0.00 | 0.00 | 0.00 | 99 | 1013.0 |
| 20260906070204 | 60 | 331 | 0.0 | 0.0 | 0.00 | 0.00 | 0.00 | 99 | 1012.7 |
| 20260906065204 | 60 | 331 | 0.0 | 0.0 | 0.00 | 0.00 | 0.00 | 99 | 1012.8 |
| 20260906064705 | 60 | 331 | 0.0 | 0.0 | 0.00 | 0.00 | 0.00 | 99 | 1012.8 |
| 20260906064204 | 60 | 331 | 0.0 | 0.0 | 0.00 | 0.00 | 0.00 | 99 | 1012.7 |
| 20260906063704 | 60 | 331 | 0.0 | 0.0 | 0.00 | 0.00 | 0.00 | 99 | 1013.0 |
| 20260906062705 | 60 | 331 | 0.0 | 0.0 | 0.00 | 0.00 | 0.00 | 99 | 1012.9 |
| 20260906062204 | 60 | 331 | 0.0 | 1.0 | 0.00 | 0.00 | 0.00 | 99 | 1013.1 |
| 20260906061705 | 60 | 331 | 0.0 | 1.0 | 0.00 | 0.00 | 0.00 | 99 | 1013.2 |
| 20260906061204 | 60 | 331 | 0.0 | 1.0 | 0.00 | 0.00 | 0.00 | 99 | 1013.1 |
| 20260906060705 | 60 | 331 | 1.0 | 1.0 | 0.00 | 0.00 | 0.00 | 99 | 1013.0 |
| 20260906060204 | 60 | 331 | 0.0 | 0.0 | 0.00 | 0.00 | 0.00 | 99 | 1013.1 |
| 20260906055705 | 61 | 331 | 0.0 | 1.0 | 0.00 | 0.00 | 0.00 | 99 | 1013.1 |
| 20260906054204 | 61 | 331 | 0.0 | 0.0 | 0.00 | 0.00 | 0.00 | 99 | 1013.3 |
| 20260906053704 | 60 | 331 | 0.0 | 0.0 | 0.00 | 0.00 | 0.00 | 99 | 1013.3 |
| 20260906053204 | 61 | 331 | 0.0 | 0.0 | 0.00 | 0.00 | 0.00 | 99 | 1013.2 |
| 20260906052704 | 61 | 331 | 0.0 | 0.0 | 0.00 | 0.00 | 0.00 | 99 | 1013.2 |
| 20260906052205 | 61 | 331 | 0.0 | 0.0 | 0.00 | 0.00 | 0.00 | 99 | 1013.2 |
| 20260906051704 | 61 | 331 | 0.0 | 0.0 | 0.00 | 0.00 | 0.00 | 99 | 1013.2 |
| 20260906051205 | 61 | 331 | 0.0 | 0.0 | 0.00 | 0.00 | 0.00 | 99 | 1013.2 |
| 20260906050705 | 61 | 331 | 0.0 | 1.0 | 0.00 | 0.00 | 0.00 | 99 | 1013.2 |
| 20260906050204 | 62 | 331 | 0.0 | 0.0 | 0.00 | 0.00 | 0.00 | 99 | 1013.1 |
| 20260906045705 | 62 | 330 | 0.0 | 1.0 | 0.00 | 0.00 | 0.00 | 99 | 1013.2 |
| 20260906045205 | 62 | 330 | 0.0 | 1.0 | 0.00 | 0.00 | 0.00 | 99 | 1013.2 |
| 20260906044704 | 62 | 330 | 1.0 | 1.0 | 0.00 | 0.00 | 0.00 | 99 | 1013.2 |
| 20260906044206 | 62 | 330 | 1.0 | 1.0 | 0.00 | 0.00 | 0.00 | 99 | 1013.3 |
| 20260906043704 | 62 | 330 | 0.0 | 0.0 | 0.00 | 0.00 | 0.00 | 99 | 1013.3 |
| 20260906043204 | 62 | 330 | 0.0 | 0.0 | 0.00 | 0.00 | 0.00 | 99 | 1013.3 |
| 20260906042205 | 62 | 330 | 1.0 | 1.0 | 0.00 | 0.00 | 0.00 | 99 | 1013.3 |
| 20260906041706 | 61 | 330 | 0.0 | 0.0 | 0.00 | 0.00 | 0.00 | 99 | 1013.5 |
| 20260906041205 | 61 | 330 | 0.0 | 0.0 | 0.00 | 0.00 | 0.00 | 99 | 1013.5 |
| 20260906040204 | 61 | 330 | 0.0 | 0.0 | 0.00 | 0.00 | 0.00 | 99 | 1013.6 |
| 20260906035704 | 61 | 330 | 0.0 | 0.0 | 0.00 | 0.02 | 0.00 | 99 | 1013.3 |
| 20260906035204 | 61 | 330 | 0.0 | 0.0 | 0.00 | 0.02 | 0.00 | 99 | 1013.3 |
| 20260906034704 | 61 | 330 | 0.0 | 0.0 | 0.00 | 0.02 | 0.00 | 99 | 1013.2 |
| 20260906034204 | 62 | 330 | 0.0 | 0.0 | 0.00 | 0.02 | 0.00 | 99 | 1013.3 |
| 20260906033704 | 62 | 330 | 0.0 | 0.0 | 0.00 | 0.02 | 0.00 | 99 | 1013.2 |
| 20260906033204 | 62 | 330 | 0.0 | 0.0 | 0.00 | 0.03 | 0.00 | 99 | 1013.2 |
| 20260906032705 | 62 | 330 | 0.0 | 0.0 | 0.00 | 0.03 | 0.00 | 99 | 1013.3 |
| 20260906032204 | 62 | 330 | 0.0 | 1.0 | 0.00 | 0.03 | 0.00 | 99 | 1013.3 |
| 20260906031704 | 61 | 355 | 0.0 | 3.0 | 0.00 | 0.03 | 0.00 | 99 | 1013.2 |
| 20260906030704 | 62 | 305 | 0.0 | 0.0 | 0.00 | 0.04 | 0.00 | 99 | 1013.0 |
| 20260906030205 | 62 | 278 | 0.0 | 0.0 | 0.00 | 0.04 | 0.00 | 99 | 1013.2 |
| 20260906025704 | 62 | 278 | 0.0 | 0.0 | 0.00 | 0.04 | 0.00 | 99 | 1013.0 |
| 20260906025207 | 62 | 278 | 0.0 | 0.0 | 0.00 | 0.04 | 0.00 | 99 | 1013.0 |
| 20260906024704 | 62 | 277 | 0.0 | 0.0 | 0.00 | 0.04 | 0.00 | 99 | 1013.0 |
| 20260906024204 | 63 | 277 | 0.0 | 0.0 | 0.00 | 0.04 | 0.00 | 99 | 1013.0 |
| 20260906023704 | 63 | 277 | 0.0 | 0.0 | 0.00 | 0.04 | 0.00 | 99 | 1013.0 |
| 20260906023205 | 63 | 277 | 0.0 | 0.0 | 0.00 | 0.04 | 0.00 | 99 | 1013.0 |
| 20260906022705 | 63 | 277 | 0.0 | 0.0 | 0.00 | 0.04 | 0.00 | 99 | 1013.1 |
| 20260906022204 | 64 | 277 | 0.0 | 0.0 | 0.00 | 0.04 | 0.00 | 98 | 1013.0 |
| 20260906021705 | 64 | 277 | 0.0 | 0.0 | 0.00 | 0.04 | 0.00 | 98 | 1013.0 |
| 20260906020705 | 65 | 276 | 0.0 | 1.0 | 0.00 | 0.04 | 0.00 | 98 | 1013.1 |
| 20260906020205 | 65 | 276 | 1.0 | 1.0 | 0.00 | 0.04 | 0.00 | 97 | 1013.2 |
| 20260906015706 | 65 | 276 | 1.0 | 1.0 | 0.00 | 0.04 | 0.00 | 96 | 1012.9 |
| 20260906015205 | 65 | 319 | 0.0 | 0.0 | 0.00 | 0.04 | 0.00 | 95 | 1012.9 |
| 20260906014704 | 65 | 319 | 0.0 | 0.0 | 0.00 | 0.04 | 0.00 | 92 | 1013.0 |
| 20260906014204 | 64 | 320 | 0.0 | 0.0 | 0.00 | 0.04 | 0.00 | 91 | 1012.6 |
| 20260906013704 | 64 | 320 | 0.0 | 5.0 | 0.00 | 0.04 | 0.00 | 93 | 1012.9 |
| 20260906013206 | 63 | 323 | 1.0 | 5.0 | 0.00 | 0.04 | 0.00 | 96 | 1012.8 |
| 20260906012704 | 63 | 322 | 0.0 | 0.0 | 0.00 | 0.04 | 0.00 | 97 | 1012.6 |
| 20260906012206 | 64 | 320 | 0.0 | 0.0 | 0.00 | 0.04 | 0.00 | 96 | 1012.7 |
| 20260906011705 | 63 | 319 | 0.0 | 0.0 | 0.00 | 0.04 | 0.00 | 96 | 1012.7 |
| 20260906011204 | 63 | 319 | 0.0 | 0.0 | 0.00 | 0.04 | 0.00 | 97 | 1012.7 |
| 20260906010706 | 64 | 320 | 0.0 | 0.0 | 0.00 | 0.04 | 0.00 | 97 | 1012.7 |
| 20260906010204 | 64 | 320 | 0.0 | 0.0 | 0.00 | 0.04 | 0.00 | 96 | 1012.4 |
| 20260906005705 | 64 | 319 | 0.0 | 1.0 | 0.00 | 0.04 | 0.00 | 96 | 1012.6 |
| 20260906005205 | 64 | 319 | 1.0 | 1.0 | 0.00 | 0.04 | 0.00 | 96 | 1012.4 |
| 20260906004705 | 64 | 319 | 0.0 | 0.0 | 0.00 | 0.04 | 0.00 | 96 | 1012.2 |
| 20260906004206 | 64 | 319 | 0.0 | 0.0 | 0.00 | 0.04 | 0.00 | 95 | 1012.4 |
| 20260906003705 | 64 | 319 | 0.0 | 0.0 | 0.00 | 0.04 | 0.00 | 95 | 1012.2 |
| 20260906003204 | 64 | 319 | 0.0 | 0.0 | 0.00 | 0.04 | 0.00 | 94 | 1012.1 |
| 20260906002705 | 65 | 319 | 0.0 | 0.0 | 0.00 | 0.04 | 0.00 | 93 | 1012.1 |
| 20260906002204 | 65 | 319 | 0.0 | 0.0 | 0.00 | 0.04 | 0.00 | 92 | 1012.0 |
| 20260906001204 | 66 | 319 | 0.0 | 0.0 | 0.00 | 0.04 | 0.00 | 91 | 1012.1 |
| 20260906000706 | 66 | 319 | 0.0 | 0.0 | 0.00 | 0.04 | 0.00 | 90 | 1011.9 |
| 20260906000205 | 67 | 319 | 0.0 | 0.0 | 0.00 | 0.04 | 0.00 | 89 | 1011.8 |
| 20260905235206 | 68 | 319 | 0.0 | 0.0 | 0.00 | 0.04 | 0.00 | 85 | 1011.6 |
| 20260905234704 | 69 | 319 | 0.0 | 0.0 | 0.00 | 0.04 | 0.00 | 84 | 1011.8 |
| 20260905234205 | 69 | 319 | 0.0 | 1.0 | 0.00 | 0.04 | 0.00 | 84 | 1011.8 |
| 20260905233203 | 69 | 325 | 0.0 | 1.0 | 0.00 | 0.04 | 0.00 | 86 | 1011.6 |
| 20260905232704 | 70 | 330 | 0.0 | 0.0 | 0.00 | 0.04 | 0.00 | 84 | 1011.8 |
| 20260905232204 | 70 | 330 | 0.0 | 1.0 | 0.00 | 0.04 | 0.00 | 82 | 1011.5 |
| 20260905231704 | 71 | 330 | 1.0 | 1.0 | 0.00 | 0.04 | 0.00 | 80 | 1011.4 |
| 20260905231204 | 72 | 330 | 0.0 | 1.0 | 0.00 | 0.04 | 0.00 | 76 | 1011.5 |
| 20260905230703 | 72 | 330 | 0.0 | 1.0 | 0.00 | 0.04 | 0.00 | 75 | 1011.5 |
| 20260905230204 | 72 | 330 | 0.0 | 0.0 | 0.00 | 0.04 | 0.00 | 75 | 1011.6 |
| 20260905225706 | 72 | 330 | 0.0 | 1.0 | 0.00 | 0.04 | 0.00 | 74 | 1011.3 |
| 20260905225204 | 73 | 330 | 0.0 | 1.0 | 0.00 | 0.04 | 0.00 | 73 | 1011.6 |
| 20260905224206 | 73 | 347 | 2.0 | 3.0 | 0.00 | 0.04 | 0.00 | 73 | 1011.4 |
| 20260905223205 | 73 | 336 | 2.0 | 5.0 | 0.00 | 0.04 | 0.00 | 72 | 1011.3 |
| 20260905222705 | 73 | 356 | 1.0 | 5.0 | 0.00 | 0.04 | 0.00 | 71 | 1011.3 |
| 20260905222205 | 74 | 330 | 0.0 | 5.0 | 0.00 | 0.04 | 0.00 | 70 | 1011.5 |
| 20260905221704 | 74 | 322 | 0.0 | 1.0 | 0.00 | 0.04 | 0.00 | 70 | 1011.4 |
| 20260905221204 | 74 | 320 | 0.0 | 3.0 | 0.00 | 0.04 | 0.00 | 68 | 1011.2 |
| 20260905220704 | 75 | 329 | 1.0 | 8.0 | 0.00 | 0.04 | 0.00 | 67 | 1011.3 |
| 20260905215203 | 76 | 325 | 5.0 | 9.0 | 0.00 | 0.04 | 0.00 | 65 | 1011.1 |
| 20260905214704 | 76 | 322 | 5.0 | 9.0 | 0.00 | 0.04 | 0.00 | 66 | 1011.2 |
| 20260905214204 | 76 | 321 | 1.0 | 5.0 | 0.00 | 0.04 | 0.00 | 68 | 1011.1 |
| 20260905213704 | 76 | 338 | 1.0 | 8.0 | 0.00 | 0.04 | 0.00 | 66 | 1011.1 |
| 20260905213205 | 76 | 344 | 1.0 | 5.0 | 0.00 | 0.04 | 0.00 | 68 | 1011.2 |
| 20260905212206 | 76 | 345 | 2.0 | 9.0 | 0.00 | 0.04 | 0.00 | 65 | 1011.0 |
| 20260905211204 | 76 | 0 | 5.0 | 13.0 | 0.00 | 0.04 | 0.00 | 63 | 1011.2 |
| 20260905210704 | 76 | 290 | 3.0 | 8.0 | 0.00 | 0.04 | 0.00 | 64 | 1011.2 |
| 20260905205704 | 76 | 15 | 5.0 | 12.0 | 0.00 | 0.04 | 0.00 | 65 | 1011.0 |
| 20260905205205 | 77 | 24 | 6.0 | 12.0 | 0.00 | 0.04 | 0.00 | 65 | 1011.1 |
| 20260905204704 | 76 | 12 | 4.0 | 13.0 | 0.00 | 0.04 | 0.00 | 66 | 1011.1 |
| 20260905204205 | 76 | 4 | 4.0 | 12.0 | 0.00 | 0.04 | 0.00 | 65 | 1011.1 |
| 20260905203704 | 76 | 344 | 2.0 | 8.0 | 0.00 | 0.04 | 0.00 | 65 | 1011.1 |
| 20260905202704 | 76 | 331 | 2.0 | 14.0 | 0.00 | 0.04 | 0.00 | 69 | 1011.2 |
| 20260905202204 | 76 | 2 | 7.0 | 14.0 | 0.00 | 0.04 | 0.00 | 66 | 1011.2 |
| 20260905201704 | 76 | 349 | 9.0 | 13.0 | 0.00 | 0.04 | 0.00 | 70 | 1011.4 |